Temp
0 0 0 1 1 1 0 0 0 0 0 0 0 0 0 0 0 0 0 0 -0 -0 -0 -1 -1 -1 -1 -1 -0 -0 0 0 0 0 0 0 0 0 0 0 0 0 0 0 0 0 0 0 0 0 0 0 0 0 0 0 0 0 1 1 1 1 1 1 1 1 1 1 1 1 1 1 1 1 1 1 1 1 1 1 1 1 1 2 2 2
0 0 0 0 1 1 0 0 0 0 0 0 0 0 0 0 0 0 0 -0 -0 -0 -1 -1 -1 -1 -0 -0 0 0 0 -0 -0 -0 -0 0 0 0 0 0 0 0 0 0 0 0 0 0 0 0 0 0 0 0 0 0 0 0 0 0 0 1 1 1 1 1 1 1 1 1 1 1 1 1 1 1 1 1 1 1 1 1 1 2 2 2
-0 -0 -0 0 0 0 0 0 0 0 0 0 0 0 0 0 0 0 -0 -0 -0 -0 -1 -0 -0 -0 0 0 0 0 -0 -0 -0 -0 -0 -0 -0 -0 -0 -0 -0 0 0 0 0 0 0 0 0 0 0 0 0 0 0 0 0 0 0 0 0 0 0 0 0 0 0 0 1 1 0 0 0 0 0 0 0 1 1 1 1 1 1 1 1 1
-0 -0 -0 -0 -0 -0 -0 0 0 -0 -0 -0 -0 -0 -0 0 0 0 -0 -0 -0 -0 0 0 0 0 0 0 0 -0 -0 -0 -0 -0 -0 -0 -0 -0 -0 -0 -0 -0 -0 0 0 0 0 0 0 0 0 0 0 0 0 0 0 0 0 0 0 0 0 0 0 0 0 0 0 0 0 0 0 0 0 0 1 1 1 1 1 1 1 1 1 1
-1 -1 -1 -1 -1 -1 -0 -0 -0 -0 -0 -0 -0 -0 -0 -0 -0 -0 0 0 0 0 0 0 0 0 0 -0 -0 -0 -0 -1 -1 -1 -1 -1 -1 -1 -1 -1 -0 -0 -0 -0 -0 0 0 0 0 0 0 0 0 0 0 0 0 0 0 0 0 0 0 0 0 0 0 0 0 0 0 0 0 0 0 0 0 0 0 0 1 1 1 1 1 1
-1 -1 -0 -0 -1 -1 -0 -0 -0 -0 -0 -0 -0 -0 -0 -0 0 0 0 0 0 0 0 0 0 -0 -0 -0 -0 -0 -1 -1 -1 -1 -1 -1 -1 -1 -1 -1 -1 -1 -0 -0 -0 -0 0 0 0 0 0 0 0 0 0 0 0 0 0 0 0 0 0 0 0 0 0 0 0 -0 -0 -0 -0 -0 -0 -0 -0 0 0 0 0 0 0 0 1 1
-1 -1 -0 -0 -0 -0 -0 -0 -0 -0 -0 -0 -0 -0 0 0 0 0 0 0 0 0 0 -0 -0 -0 -0 -0 -0 -1 -1 -1 -1 -1 -1 -1 -1 -1 -1 -1 -1 -1 -1 -0 -0 -0 -0 0 0 0 0 0 0 0 0 0 0 0 0 0 0 0 0 0 0 0 0 -0 -0 -0 -0 -0 -0 -0 -0 -0 -0 -0 -0 -0 -0 0 0 0 0 1
-1 -1 -1 -1 -0 -0 -0 -0 -0 -0 -0 -0 0 0 0 0 0 0 0 0 0 -0 -0 -0 -0 -0 -0 -1 -1 -1 -1 -1 -1 -1 -1 -1 -1 -1 -1 -1 -1 -1 -1 -0 -0 -0 0 0 0 0 0 0 0 0 0 0 0 0 -0 -0 -0 -0 -0 -0 -0 -0 -0 -0 -0 -0 -0 -0 -0 -0 -0 -0 -0 -0 -0 -0 -0 -0 -0 0 0 0
-1 -1 -1 -1 -1 -0 -0 -0 -0 0 0 0 0 0 0 0 0 0 0 0 -0 -0 -0 -0 -0 -1 -1 -1 -1 -1 -1 -1 -1 -1 -1 -1 -1 -1 -1 -1 -1 -1 -1 -0 -0 -0 -0 -0 -0 -0 -0 -0 -0 -0 -0 -0 -0 -0 -1 -1 -0 -0 -0 -0 -0 -0 -0 -0 -0 -0 -0 -0 -0 -0 -0 -1 -1 -1 -1 -1 -1 -0 -0 -0 -0 0
-0 -0 -0 -0 -0 -0 -0 0 0 0 0 0 0 0 0 0 0 0 -0 -0 -0 -0 -0 -0 -1 -1 -1 -1 -1 -1 -1 -1 -1 -1 -1 -2 -2 -1 -1 -1 -1 -1 -1 -1 -1 -0 -0 -0 -0 -1 -1 -1 -1 -1 -1 -1 -1 -1 -1 -1 -1 -1 -1 -1 -1 -1 -1 -1 -1 -1 -1 -1 -1 -1 -1 -1 -1 -1 -1 -1 -1 -1 -1 -0 -0 -0
-0 -0 -0 -0 -0 0 0 0 0 1 1 0 0 0 0 0 0 -0 -0 -0 -0 -0 -1 -1 -1 -1 -1 -1 -1 -1 -1 -1 -1 -1 -1 -2 -1 -1 -1 -1 -1 -1 -1 -1 -1 -1 -1 -1 -1 -1 -1 -1 -1 -1 -1 -1 -1 -1 -1 -1 -1 -1 -1 -1 -1 -1 -1 -1 -1 -1 -1 -1 -1 -1 -1 -1 -1 -1 -1 -1 -1 -1 -1 -1 -0 -0
-0 -0 -0 -0 0 0 0 0 0 0 0 0 0 0 0 0 0 -0 -0 -0 -0 -1 -1 -1 -1 -1 -1 -1 -1 -1 -1 -1 -2 -2 -2 -2 -2 -1 -1 -1 -1 -1 -1 -1 -1 -1 -1 -1 -1 -1 -1 -1 -1 -2 -2 -1 -1 -1 -1 -1 -1 -1 -1 -1 -1 -1 -1 -1 -1 -0 -0 -0 -0 -0 -1 -1 -1 -1 -1 -1 -1 -1 -1 -1 -1 -1
-0 -0 -0 -0 -0 -0 0 0 0 0 0 0 0 0 0 0 0 -0 -0 -1 -1 -1 -1 -1 -1 -1 -1 -1 -2 -2 -2 -2 -2 -2 -2 -2 -2 -2 -2 -2 -2 -1 -1 -1 -1 -1 -1 -1 -1 -1 -1 -1 -1 -1 -1 -1 -1 -1 -1 -1 -1 -1 -1 -1 -1 -1 -1 -1 -0 -0 -0 -0 -0 -0 -0 -1 -1 -1 -1 -1 -1 -1 -1 -1 -1 -1
-1 -1 -0 -0 -0 -0 0 0 0 0 0 0 0 0 0 -0 -0 -0 -0 -1 -1 -1 -1 -1 -1 -2 -2 -2 -2 -2 -2 -2 -2 -2 -2 -2 -2 -2 -2 -2 -2 -2 -2 -2 -1 -1 -1 -1 -1 -1 -1 -1 -1 -1 -1 -1 -1 -1 -1 -1 -1 -1 -1 -1 -1 -1 -1 -0 -0 -0 -0 -0 -0 -0 -0 -0 -0 -0 -1 -1 -1 -1 -1 -1 -1 -1
-1 -1 -0 -0 -0 -0 0 0 0 0 0 0 0 0 -0 -0 -0 -0 -1 -1 -1 -1 -1 -1 -2 -2 -2 -2 -2 -2 -2 -2 -3 -3 -3 -2 -2 -2 -2 -2 -2 -2 -2 -2 -2 -2 -1 -2 -2 -2 -2 -1 -1 -1 -1 -2 -2 -2 -1 -1 -1 -1 -1 -1 -1 -1 -1 -1 -0 -0 -0 -0 -0 -0 -0 -0 -0 -0 -0 -1 -1 -1 -1 -1 -1 -1
-1 -0 -0 -0 -0 0 0 0 0 0 0 0 -0 -0 -0 -0 -1 -1 -1 -1 -1 -1 -2 -2 -2 -2 -2 -2 -2 -2 -2 -3 -3 -3 -3 -3 -3 -2 -3 -3 -3 -2 -2 -2 -2 -2 -2 -2 -2 -2 -2 -2 -1 -1 -2 -2 -2 -2 -1 -1 -1 -1 -1 -1 -1 -1 -1 -1 -0 -0 -0 -0 -0 -0 -0 -1 -1 -1 -1 -1 -1 -1 -1 -1 -1 -1
-0 -0 0 0 0 0 0 0 0 0 -0 -0 -0 -0 -0 -1 -1 -1 -1 -1 -2 -2 -2 -2 -2 -3 -2 -2 -2 -2 -3 -3 -3 -3 -3 -3 -3 -3 -3 -3 -3 -3 -2 -2 -2 -2 -2 -2 -2 -2 -2 -2 -2 -2 -2 -2 -2 -2 -1 -1 -1 -1 -1 -1 -1 -1 -1 -1 -1 -1 -1 -1 -1 -1 -1 -1 -1 -1 -1 -1 -1 -1 -1 -1 -1 -1
0 0 0 0 0 0 0 -0 -0 -0 -0 -0 -0 -1 -1 -1 -1 -1 -2 -2 -2 -2 -2 -3 -3 -3 -3 -3 -3 -3 -3 -3 -3 -3 -3 -4 -3 -3 -3 -3 -3 -3 -3 -2 -2 -2 -2 -2 -2 -2 -2 -2 -2 -2 -2 -2 -2 -2 -1 -1 -1 -1 -1 -1 -1 -1 -1 -1 -1 -1 -1 -1 -1 -1 -1 -1 -1 -1 -1 -1 -1 -1 -1 -1 -1 -1
0 0 0 -0 -0 -0 -0 -0 -0 -0 -0 -1 -1 -1 -1 -1 -2 -2 -2 -2 -2 -3 -3 -3 -3 -3 -3 -3 -3 -3 -3 -3 -3 -4 -4 -4 -4 -3 -3 -3 -3 -3 -3 -3 -2 -2 -2 -2 -2 -2 -2 -2 -2 -2 -2 -2 -2 -2 -2 -1 -1 -1 -1 -1 -1 -1 -1 -1 -1 -1 -1 -1 -1 -1 -1 -1 -1 -1 -1 -1 -1 -1 -1 -1 -1 -1
-0 -0 -0 -1 -1 -1 -1 -1 -1 -1 -1 -1 -1 -1 -1 -2 -2 -2 -2 -2 -3 -3 -3 -3 -3 -3 -3 -3 -3 -3 -3 -3 -4 -4 -4 -4 -4 -4 -3 -3 -3 -3 -3 -3 -3 -2 -2 -3 -2 -2 -2 -2 -2 -2 -2 -2 -2 -2 -2 -2 -2 -2 -2 -2 -2 -2 -2 -1 -1 -1 -1 -1 -1 -1 -1 -1 -1 -1 -1 -1 -1 -1 -1 -1 -1 -1
-1 -1 -1 -1 -1 -1 -1 -1 -1 -1 -1 -2 -2 -2 -2 -2 -2 -2 -3 -3 -3 -3 -3 -4 -4 -4 -4 -4 -4 -4 -4 -4 -4 -4 -4 -4 -4 -4 -3 -3 -3 -3 -3 -3 -3 -3 -3 -3 -3 -3 -2 -2 -2 -2 -3 -2 -2 -2 -2 -2 -2 -2 -2 -2 -2 -2 -2 -2 -1 -1 -1 -1 -1 -1 -1 -1 -1 -1 -1 -1 -1 -1 -1 -1 -1 -1
-1 -1 -1 -1 -2 -2 -2 -2 -2 -2 -2 -2 -2 -2 -2 -3 -3 -3 -3 -3 -3 -4 -4 -4 -4 -4 -4 -4 -4 -4 -4 -4 -4 -4 -4 -4 -4 -4 -3 -3 -3 -3 -3 -3 -3 -3 -3 -3 -3 -3 -3 -3 -3 -3 -3 -3 -2 -2 -2 -2 -2 -2 -2 -2 -2 -2 -2 -2 -1 -1 -1 -1 -1 -1 -1 -1 -1 -1 -1 -1 -1 -1 -1 -1 -1 -1
-1 -2 -2 -2 -2 -2 -2 -2 -2 -2 -2 -2 -2 -2 -3 -3 -3 -3 -3 -4 -4 -4 -4 -4 -4 -4 -4 -4 -4 -4 -4 -4 -4 -4 -4 -4 -4 -4 -3 -3 -3 -3 -3 -3 -3 -3 -3 -3 -3 -3 -3 -3 -3 -3 -3 -3 -3 -3 -3 -3 -3 -2 -2 -2 -2 -2 -2 -2 -2 -2 -2 -2 -2 -2 -2 -2 -1 -1 -1 -1 -1 -1 -1 -1 -1 -1
-2 -2 -2 -2 -2 -2 -2 -2 -2 -2 -2 -2 -3 -3 -3 -3 -3 -3 -4 -4 -4 -4 -4 -4 -4 -4 -5 -5 -5 -4 -4 -4 -4 -4 -4 -4 -4 -4 -3 -3 -3 -4 -4 -3 -3 -3 -3 -3 -3 -3 -3 -3 -3 -3 -3 -3 -3 -3 -3 -3 -3 -3 -3 -2 -2 -2 -2 -2 -2 -2 -2 -2 -2 -2 -2 -2 -2 -1 -1 -1 -1 -1 -1 -1 -1 -1
-2 -2 -2 -2 -2 -2 -2 -2 -2 -2 -3 -3 -3 -3 -3 -3 -3 -3 -4 -4 -4 -4 -4 -4 -5 -5 -5 -5 -5 -5 -5 -4 -4 -4 -4 -4 -4 -4 -4 -4 -4 -4 -4 -4 -4 -4 -4 -4 -3 -3 -3 -3 -3 -3 -3 -3 -3 -3 -3 -3 -3 -3 -3 -3 -3 -3 -3 -3 -3 -3 -3 -2 -2 -2 -2 -2 -2 -2 -1 -1 -1 -1 -1 -1 -1 -1
-3 -3 -3 -3 -3 -3 -3 -3 -3 -3 -3 -3 -3 -3 -3 -3 -3 -4 -4 -4 -4 -4 -4 -4 -5 -5 -5 -5 -5 -5 -5 -4 -4 -4 -4 -4 -4 -4 -4 -4 -4 -4 -4 -4 -4 -4 -4 -4 -3 -3 -3 -3 -3 -3 -3 -3 -3 -3 -3 -3 -3 -3 -3 -3 -3 -3 -3 -3 -3 -3 -3 -3 -2 -2 -2 -2 -2 -2 -2 -2 -1 -1 -1 -1 -1 -1
-4 -3 -3 -3 -3 -3 -3 -3 -3 -3 -3 -3 -3 -3 -3 -3 -3 -4 -4 -4 -4 -4 -4 -5 -5 -5 -5 -5 -5 -5 -5 -5 -5 -4 -4 -5 -5 -5 -5 -4 -4 -4 -4 -4 -4 -4 -4 -4 -3 -3 -3 -3 -3 -3 -3 -3 -3 -3 -3 -3 -3 -3 -3 -3 -3 -3 -3 -3 -3 -3 -3 -3 -3 -2 -2 -2 -2 -2 -2 -2 -2 -2 -2 -2 -2 -2
-4 -4 -4 -4 -4 -4 -4 -4 -4 -4 -4 -3 -3 -3 -3 -3 -4 -4 -4 -4 -4 -4 -4 -5 -5 -5 -5 -5 -5 -5 -5 -5 -5 -5 -5 -5 -5 -5 -5 -4 -4 -4 -5 -5 -5 -4 -4 -4 -3 -3 -3 -3 -3 -3 -3 -3 -3 -3 -3 -3 -3 -4 -4 -4 -4 -4 -4 -4 -3 -3 -3 -3 -3 -3 -3 -2 -2 -2 -2 -2 -2 -2 -2 -2 -2 -2
-4 -4 -4 -4 -4 -4 -4 -4 -4 -4 -4 -4 -4 -4 -4 -4 -4 -4 -4 -4 -4 -4 -5 -5 -5 -5 -5 -5 -5 -5 -5 -5 -5 -5 -5 -5 -5 -5 -5 -5 -5 -5 -5 -5 -5 -4 -4 -4 -3 -3 -3 -3 -3 -3 -4 -4 -4 -3 -3 -3 -4 -4 -4 -4 -4 -4 -4 -4 -4 -4 -3 -3 -3 -3 -3 -3 -3 -3 -3 -3 -2 -2 -2 -2 -3 -3
-4 -4 -4 -4 -4 -4 -4 -4 -4 -4 -4 -4 -4 -4 -4 -4 -4 -4 -4 -4 -5 -5 -5 -5 -5 -5 -5 -5 -5 -5 -5 -4 -4 -5 -5 -5 -5 -5 -5 -5 -5 -5 -5 -5 -5 -4 -4 -4 -3 -3 -3 -4 -4 -4 -4 -4 -4 -4 -4 -4 -4 -4 -4 -4 -4 -4 -4 -4 -4 -4 -4 -4 -3 -3 -3 -3 -3 -3 -3 -3 -3 -3 -3 -3 -3 -3
-5 -5 -5 -5 -5 -4 -4 -4 -4 -4 -4 -4 -4 -4 -4 -4 -4 -4 -4 -5 -5 -5 -5 -5 -5 -5 -5 -5 -5 -6 -6 -5 -5 -5 -5 -5 -6 -6 -6 -6 -6 -6 -6 -6 -5 -5 -4 -4 -4 -4 -4 -4 -4 -5 -5 -4 -4 -4 -4 -4 -4 -4 -4 -4 -4 -4 -4 -4 -4 -4 -4 -4 -4 -4 -4 -4 -4 -4 -3 -3 -3 -3 -3 -3 -3 -3
-5 -5 -5 -5 -5 -5 -4 -4 -4 -4 -4 -4 -4 -4 -4 -4 -4 -5 -5 -5 -5 -5 -5 -5 -5 -5 -5 -5 -5 -5 -6 -5 -5 -6 -6 -6 -6 -6 -6 -6 -6 -6 -6 -6 -6 -6 -5 -5 -4 -4 -5 -5 -5 -5 -5 -5 -5 -4 -4 -4 -4 -4 -4 -4 -4 -4 -4 -4 -4 -4 -4 -4 -4 -4 -4 -4 -4 -4 -4 -4 -3 -3 -3 -3 -3 -3
-5 -5 -5 -5 -5 -5 -4 -4 -4 -4 -4 -4 -4 -4 -4 -5 -5 -5 -5 -5 -5 -5 -5 -5 -5 -6 -6 -6 -6 -6 -6 -6 -6 -6 -6 -6 -6 -6 -6 -6 -6 -6 -6 -6 -6 -6 -6 -5 -5 -5 -5 -5 -5 -5 -5 -5 -5 -5 -4 -4 -4 -4 -4 -4 -4 -4 -4 -4 -4 -4 -4 -4 -4 -4 -4 -4 -4 -4 -4 -4 -4 -3 -3 -3 -3 -3
-5 -5 -5 -5 -5 -5 -5 -4 -4 -4 -4 -4 -4 -4 -5 -5 -5 -5 -5 -5 -5 -5 -5 -6 -6 -6 -6 -6 -6 -6 -6 -6 -6 -6 -6 -6 -6 -6 -6 -6 -6 -6 -6 -6 -6 -6 -6 -6 -6 -6 -5 -5 -5 -5 -5 -5 -5 -5 -5 -5 -5 -4 -4 -4 -4 -4 -4 -4 -4 -4 -4 -4 -4 -4 -4 -4 -4 -4 -4 -4 -4 -3 -3 -3 -3 -3
-5 -5 -5 -5 -5 -5 -5 -5 -5 -5 -4 -4 -5 -5 -5 -5 -5 -5 -5 -5 -5 -5 -6 -6 -6 -6 -6 -6 -6 -6 -6 -6 -7 -7 -7 -7 -7 -7 -7 -7 -7 -7 -7 -7 -6 -6 -6 -6 -6 -6 -6 -5 -5 -5 -5 -5 -5 -5 -5 -5 -5 -5 -5 -5 -5 -5 -4 -4 -4 -4 -4 -4 -4 -4 -4 -4 -4 -4 -4 -4 -4 -3 -3 -3 -3 -3
-5 -5 -5 -5 -5 -5 -5 -5 -5 -5 -5 -5 -5 -5 -5 -5 -5 -5 -5 -5 -6 -6 -6 -6 -6 -6 -7 -7 -7 -7 -7 -7 -7 -7 -7 -7 -7 -7 -7 -7 -7 -7 -7 -7 -7 -6 -6 -6 -6 -6 -6 -6 -5 -5 -5 -5 -5 -5 -5 -5 -5 -5 -5 -5 -5 -5 -4 -4 -4 -4 -4 -4 -4 -4 -4 -4 -4 -4 -4 -4 -4 -3 -3 -3 -3 -3
-5 -5 -5 -5 -5 -5 -5 -5 -5 -5 -5 -5 -5 -5 -5 -6 -6 -6 -6 -6 -6 -6 -7 -7 -7 -7 -7 -7 -7 -7 -7 -7 -7 -7 -7 -7 -7 -7 -7 -7 -7 -7 -7 -7 -7 -7 -6 -6 -6 -6 -6 -6 -5 -5 -5 -5 -5 -5 -5 -5 -5 -5 -5 -5 -5 -4 -4 -4 -4 -4 -4 -4 -4 -4 -4 -4 -4 -4 -4 -4 -4 -4 -4 -4 -3 -3
-5 -5 -5 -5 -6 -6 -6 -6 -5 -5 -5 -5 -6 -6 -6 -6 -6 -6 -6 -7 -7 -7 -7 -7 -7 -7 -7 -7 -7 -7 -7 -7 -7 -7 -7 -7 -7 -7 -7 -7 -7 -7 -7 -7 -7 -7 -7 -6 -6 -6 -6 -6 -5 -5 -5 -5 -5 -5 -5 -5 -5 -5 -5 -4 -4 -4 -4 -4 -4 -4 -4 -4 -4 -4 -4 -4 -4 -4 -4 -4 -4 -4 -4 -4 -4 -4
-6 -6 -6 -6 -6 -6 -6 -6 -6 -6 -6 -6 -6 -6 -6 -6 -6 -6 -7 -7 -7 -7 -7 -7 -7 -7 -7 -7 -7 -7 -7 -7 -7 -7 -7 -7 -7 -7 -7 -7 -7 -7 -7 -7 -7 -7 -7 -7 -6 -6 -6 -6 -5 -5 -5 -5 -5 -5 -5 -5 -5 -5 -4 -4 -4 -4 -4 -4 -4 -4 -4 -4 -4 -4 -4 -4 -4 -4 -4 -4 -4 -4 -4 -4 -4 -4
-6 -6 -6 -6 -6 -6 -6 -6 -6 -6 -6 -6 -6 -6 -6 -6 -6 -6 -6 -7 -7 -7 -7 -7 -7 -7 -7 -7 -7 -7 -7 -7 -7 -7 -7 -7 -7 -7 -7 -7 -7 -7 -7 -7 -7 -7 -7 -7 -6 -6 -6 -6 -6 -5 -5 -5 -5 -5 -5 -5 -4 -4 -4 -4 -4 -4 -4 -4 -4 -4 -4 -4 -4 -4 -4 -4 -4 -4 -4 -4 -4 -4 -4 -4 -4 -4
-6 -6 -6 -6 -6 -6 -6 -6 -6 -6 -6 -7 -7 -7 -7 -7 -7 -7 -7 -7 -7 -7 -7 -7 -7 -7 -7 -7 -7 -7 -7 -7 -7 -7 -7 -7 -7 -7 -7 -7 -7 -7 -7 -7 -7 -7 -7 -7 -6 -6 -6 -6 -6 -5 -5 -5 -5 -5 -5 -5 -5 -4 -4 -4 -4 -4 -4 -4 -4 -4 -4 -4 -4 -4 -4 -4 -4 -4 -4 -4 -4 -4 -4 -4 -4 -4
-6 -6 -6 -6 -6 -6 -6 -6 -7 -7 -7 -7 -7 -7 -7 -7 -7 -7 -7 -7 -7 -7 -7 -7 -7 -7 -7 -7 -7 -7 -7 -7 -7 -7 -7 -6 -6 -6 -6 -6 -6 -6 -7 -7 -7 -7 -6 -6 -6 -6 -6 -6 -6 -5 -5 -5 -5 -5 -5 -5 -5 -5 -4 -4 -4 -4 -4 -4 -4 -4 -4 -4 -4 -4 -4 -4 -4 -4 -4 -4 -4 -4 -4 -4 -4 -4
-6 -6 -6 -6 -7 -7 -7 -7 -7 -7 -7 -7 -7 -7 -7 -7 -7 -7 -7 -7 -7 -7 -7 -7 -7 -7 -7 -7 -7 -7 -7 -6 -6 -6 -6 -6 -6 -6 -6 -6 -6 -6 -6 -6 -7 -7 -6 -6 -6 -6 -6 -6 -6 -5 -5 -5 -5 -5 -5 -5 -5 -5 -4 -4 -4 -4 -4 -4 -4 -4 -5 -5 -5 -5 -5 -5 -5 -4 -4 -4 -4 -4 -4 -4 -4 -4
-6 -6 -6 -7 -7 -7 -7 -7 -7 -7 -7 -7 -7 -7 -7 -7 -7 -7 -7 -7 -7 -7 -7 -7 -7 -7 -7 -7 -7 -6 -6 -6 -6 -6 -6 -6 -6 -6 -6 -6 -6 -6 -6 -6 -6 -6 -6 -6 -6 -6 -6 -6 -5 -5 -5 -5 -5 -5 -5 -5 -5 -5 -5 -4 -4 -4 -5 -5 -5 -5 -5 -5 -5 -5 -5 -5 -5 -4 -4 -4 -4 -4 -4 -4 -4 -4
-6 -6 -6 -7 -7 -7 -7 -7 -7 -7 -7 -7 -7 -7 -7 -7 -7 -7 -7 -7 -7 -7 -7 -6 -7 -7 -7 -6 -6 -6 -6 -6 -6 -6 -6 -6 -6 -6 -6 -6 -6 -6 -6 -6 -6 -6 -6 -6 -6 -6 -6 -5 -5 -5 -5 -5 -5 -5 -5 -5 -5 -5 -5 -5 -5 -5 -5 -5 -5 -5 -5 -4 -5 -5 -5 -5 -4 -4 -4 -4 -4 -4 -4 -4 -4 -3
-6 -6 -7 -7 -7 -7 -8 -8 -8 -7 -7 -7 -7 -7 -7 -7 -7 -7 -6 -6 -6 -6 -6 -6 -6 -6 -6 -6 -6 -6 -6 -6 -6 -6 -6 -6 -6 -6 -6 -6 -6 -6 -5 -5 -6 -6 -6 -6 -6 -6 -6 -6 -5 -5 -5 -5 -5 -5 -5 -5 -5 -5 -5 -4 -4 -4 -4 -4 -4 -4 -4 -4 -4 -5 -5 -4 -4 -4 -4 -4 -4 -4 -3 -3 -3 -3
-7 -7 -7 -7 -7 -8 -8 -8 -8 -7 -7 -7 -7 -7 -7 -7 -6 -6 -6 -6 -6 -6 -6 -6 -6 -6 -6 -6 -6 -6 -6 -6 -6 -6 -6 -6 -6 -6 -6 -5 -5 -5 -5 -5 -5 -5 -6 -6 -6 -6 -6 -6 -5 -5 -5 -5 -5 -5 -5 -5 -5 -5 -5 -4 -4 -4 -4 -4 -4 -4 -4 -4 -4 -4 -4 -4 -4 -4 -4 -3 -3 -3 -3 -3 -3 -3
-7 -7 -7 -8 -8 -8 -8 -8 -8 -7 -7 -7 -7 -7 -7 -7 -6 -6 -6 -6 -6 -6 -6 -7 -7 -7 -7 -7 -6 -6 -6 -6 -6 -6 -6 -6 -6 -6 -5 -5 -5 -5 -5 -5 -5 -5 -5 -5 -6 -6 -6 -6 -6 -5 -5 -5 -5 -5 -5 -5 -5 -5 -5 -5 -4 -4 -4 -4 -4 -4 -4 -4 -4 -4 -4 -4 -4 -4 -3 -3 -3 -3 -3 -3 -3 -3
-8 -8 -8 -8 -8 -8 -8 -8 -7 -7 -7 -7 -7 -7 -7 -7 -7 -6 -6 -6 -6 -7 -7 -7 -7 -7 -7 -7 -7 -6 -6 -6 -6 -6 -6 -6 -6 -6 -5 -5 -5 -5 -5 -5 -5 -5 -5 -5 -5 -5 -5 -6 -6 -6 -5 -5 -5 -5 -5 -5 -5 -5 -5 -5 -4 -4 -4 -4 -4 -4 -4 -4 -4 -4 -4 -4 -4 -3 -3 -3 -3 -3 -3 -3 -3 -3
-8 -8 -8 -8 -8 -8 -8 -8 -8 -7 -7 -7 -7 -7 -7 -7 -7 -6 -6 -6 -7 -7 -7 -7 -7 -7 -7 -7 -6 -6 -6 -6 -6 -6 -6 -6 -6 -5 -5 -5 -5 -5 -5 -5 -5 -5 -5 -5 -5 -5 -5 -5 -5 -5 -5 -5 -5 -5 -5 -5 -5 -5 -4 -4 -4 -4 -4 -4 -4 -4 -4 -4 -4 -4 -4 -4 -4 -3 -3 -3 -3 -3 -3 -3 -3 -3
-8 -8 -8 -8 -8 -8 -8 -8 -8 -8 -7 -7 -7 -7 -7 -7 -7 -7 -7 -7 -7 -7 -7 -7 -7 -7 -7 -7 -6 -6 -6 -6 -6 -6 -6 -6 -6 -6 -5 -5 -5 -5 -5 -5 -5 -5 -5 -5 -5 -5 -4 -4 -4 -4 -4 -4 -4 -4 -4 -4 -4 -4 -4 -4 -4 -4 -4 -4 -4 -4 -4 -4 -4 -4 -4 -4 -4 -4 -3 -3 -3 -3 -3 -3 -3 -3
Height
804 804 804 804 805 805 806 806 807 808 808 808 809 809 810 810 810 810 810 810 811 811 811 811 811 812 813 814 815 816 816 816 816 816 816 816 816 816 816 816 816 816 815 815 814 813 812 812 812 811 811 811 811 811 811 810 810 810 810 810 810 810 810 810 810 811 811 811 811 811 811 810 810 810 810 810 810 809 809 809 809 809 809 809 809 809
804 805 805 805 805 805 806 806 807 807 808 808 808 809 809 809 810 810 810 810 810 810 810 811 811 812 813 814 815 815 815 815 815 815 815 815 815 815 815 815 815 814 814 813 812 812 811 811 811 810 810 810 810 809 809 809 809 809 809 809 809 809 809 809 809 809 809 809 809 809 809 809 809 809 808 808 808 808 808 808 808 808 808 808 808 808
804 805 805 805 805 806 806 806 806 807 807 808 808 809 809 809 809 809 809 809 809 810 810 811 812 812 813 813 814 814 814 814 814 814 814 814 814 814 814 814 813 813 812 811 811 810 810 810 809 809 809 809 809 808 808 808 808 808 808 808 808 808 808 808 808 808 808 808 808 808 808 807 807 807 807 807 807 807 807 806 806 806 806 806 806 806
804 805 805 805 806 806 806 806 806 806 807 808 808 809 809 809 809 809 809 809 810 810 811 811 812 812 812 812 812 813 813 813 813 813 813 813 813 813 813 812 812 811 811 810 810 809 809 808 808 808 808 808 808 807 807 807 807 807 807 806 806 806 806 807 807 807 807 807 806 806 806 806 806 806 806 806 806 805 805 805 805 805 805 805 805 805
805 805 805 805 806 806 806 806 806 806 807 807 808 808 808 809 809 809 809 810 810 810 811 811 811 811 811 811 811 812 812 812 812 812 812 812 812 811 811 811 810 810 809 809 808 808 808 807 807 807 807 807 807 806 806 806 806 806 806 806 806 806 806 806 806 806 806 805 805 805 805 805 805 804 804 804 804 804 803 803 803 803 803 803 803 803
805 805 805 805 805 805 806 806 806 806 806 807 807 808 808 809 809 809 810 810 810 810 810 810 810 811 811 811 811 811 811 811 811 811 811 811 811 810 810 809 809 808 808 808 807 807 807 807 806 806 806 806 806 806 805 805 805 805 805 805 805 805 805 805 805 804 804 804 804 804 803 803 803 803 802 802 802 802 802 802 802 802 802 802 802 801
805 805 805 805 805 805 805 805 806 806 806 806 807 807 808 809 809 809 809 809 809 809 809 809 810 810 810 810 811 811 811 811 811 810 810 809 809 808 808 808 807 807 807 807 806 806 806 806 806 806 805 805 805 805 805 804 804 804 804 804 804 804 803 803 803 803 803 803 802 802 802 801 801 801 801 801 801 801 801 801 800 800 800 800 800 800
805 805 805 804 804 804 804 805 805 806 806 806 807 807 808 808 809 809 809 809 809 808 809 809 809 809 810 810 810 810 810 809 809 809 808 808 807 807 807 806 806 806 806 806 806 806 805 805 805 805 805 804 804 804 804 803 803 803 803 802 802 802 802 802 802 801 801 801 801 801 800 800 800 800 799 799 799 799 799 799 799 799 799 799 798 798
805 805 805 804 804 804 804 805 805 806 806 806 807 807 807 808 808 808 808 808 808 808 808 808 808 809 809 809 809 809 809 808 808 807 807 807 806 806 806 806 806 805 805 805 805 805 804 804 804 804 804 803 803 803 802 802 802 802 801 801 801 801 801 801 800 800 800 800 799 799 799 799 798 798 798 798 798 797 797 797 797 797 797 797 797 796
805 804 804 804 804 804 804 805 805 806 806 806 807 807 807 808 808 808 808 808 808 808 808 808 808 808 808 808 808 808 808 807 807 807 806 806 806 805 805 805 804 804 804 804 804 804 803 803 803 803 802 802 802 801 801 801 801 800 800 800 800 799 799 799 799 799 798 798 798 798 797 797 797 797 796 796 796 796 796 796 796 796 795 795 795 795
804 804 804 804 804 804 805 805 806 806 806 806 806 807 807 807 807 807 807 807 807 807 807 807 807 807 807 807 807 807 806 806 806 805 805 805 805 804 804 804 803 803 803 803 803 802 802 802 802 801 801 801 801 800 800 799 799 799 799 798 798 798 798 798 797 797 797 797 796 796 796 796 796 796 795 795 795 795 794 794 794 794 794 794 793 793
804 804 804 804 804 804 805 805 806 806 806 806 806 806 806 807 807 807 806 806 806 807 807 807 807 806 806 806 806 806 805 805 804 804 804 804 803 803 803 802 802 802 802 801 801 801 801 801 801 800 800 799 799 799 798 798 798 797 797 797 797 797 796 796 796 796 796 796 795 795 795 795 794 794 794 794 793 793 793 793 792 792 792 792 791 791
804 804 804 804 804 805 805 805 806 806 806 806 806 806 806 806 806 806 806 806 806 806 806 806 806 806 806 806 805 805 804 804 803 803 803 802 802 802 801 801 801 801 801 800 800 800 800 799 799 799 798 798 797 797 797 796 796 796 796 796 796 796 795 795 795 795 795 794 794 794 794 793 793 793 792 792 792 792 791 791 791 791 791 790 790 790
804 804 804 805 805 805 805 805 805 805 805 806 806 806 806 806 806 806 806 806 806 805 805 805 805 805 805 805 805 804 804 803 802 802 802 802 801 801 801 800 800 800 799 799 798 798 798 798 798 797 797 796 796 796 796 795 795 795 795 795 795 795 794 794 794 794 794 793 793 793 792 792 791 791 791 791 791 790 790 790 789 789 789 788 788 788
804 804 805 805 805 805 805 805 805 805 805 805 806 806 806 806 805 805 805 805 805 805 804 804 804 804 804 804 804 804 803 802 802 801 801 801 801 800 800 799 799 798 798 797 797 797 797 797 796 796 796 795 795 795 794 794 794 794 794 794 794 794 793 793 793 792 792 792 791 791 791 791 790 790 790 789 789 789 788 788 788 787 787 786 786 786
804 804 804 804 804 805 805 805 805 805 805 805 805 805 805 805 805 805 804 804 804 804 804 803 803 803 803 804 804 803 803 802 801 801 800 800 799 799 799 798 797 797 796 796 796 796 796 796 795 795 795 794 794 794 793 793 793 793 793 793 793 792 792 792 791 791 791 791 790 790 789 789 789 788 788 788 787 787 786 786 786 786 785 785 784 784
804 804 804 804 804 804 805 805 805 805 805 805 805 805 805 804 804 804 804 804 804 803 803 803 803 803 803 802 803 803 802 802 801 800 799 798 798 798 798 797 796 796 795 795 795 795 794 794 794 794 794 793 793 793 793 793 792 792 792 792 791 791 791 791 790 790 789 789 789 788 788 787 787 787 786 786 786 785 785 784 784 783 783 783 782 782
804 804 804 804 804 804 804 804 804 804 804 804 804 804 804 804 804 804 804 803 803 803 803 803 803 803 803 802 802 802 802 801 801 799 798 797 796 796 796 796 796 795 794 794 794 794 793 793 793 793 793 792 792 792 792 792 791 791 791 791 790 790 790 789 789 788 788 787 787 787 786 786 786 785 785 784 784 783 783 782 782 781 781 781 780 780
804 804 804 804 804 804 804 804 804 804 804 804 804 804 804 803 803 803 803 803 803 803 803 803 803 803 802 802 802 802 802 801 800 799 797 796 795 795 795 795 794 794 793 793 792 792 792 792 792 792 791 791 791 791 791 790 790 790 789 789 789 788 788 788 787 787 786 786 786 785 785 784 784 783 783 782 782 781 781 781 780 780 779 779 778 778
804 804 804 804 804 804 804 803 803 803 803 803 803 803 803 803 803 803 803 803 803 803 803 803 803 802 802 802 801 801 801 801 800 799 797 795 794 794 794 794 793 793 792 791 791 791 791 791 791 791 790 790 790 789 789 789 789 788 788 788 787 787 786 786 786 785 785 784 784 783 783 783 782 781 781 781 780 780 779 779 778 777 777 776 776 776
803 803 803 804 803 803 803 803 803 803 803 803 803 803 803 803 803 803 803 803 803 803 803 803 802 802 802 801 801 801 800 800 800 798 797 795 793 793 793 793 793 792 791 790 790 790 790 790 789 789 789 788 788 788 788 787 787 787 786 786 786 785 785 784 784 783 783 782 782 782 781 781 780 780 779 779 778 778 777 777 776 776 775 775 774 774
803 803 803 803 803 803 803 803 803 803 803 803 803 803 803 803 803 803 803 803 803 802 802 802 802 801 801 801 800 800 800 800 799 798 797 795 793 792 792 792 792 791 790 789 789 789 789 788 788 788 787 787 787 786 786 786 786 785 785 784 784 783 783 782 782 781 781 781 781 780 780 779 779 778 777 777 776 776 776 775 775 774 773 773 772 772
803 803 803 803 803 803 803 803 803 803 803 803 803 802 802 802 802 802 802 802 802 802 802 801 801 801 800 800 799 799 799 799 799 798 797 795 792 791 792 792 791 790 789 788 788 788 787 787 786 786 786 786 785 785 785 784 784 784 783 783 782 782 781 781 780 780 780 779 779 778 778 777 777 776 776 775 775 774 774 773 773 772 772 771 771 770
803 803 803 803 803 803 803 803 802 802 802 802 802 802 802 802 802 802 802 802 802 801 801 801 800 800 799 799 798 798 798 798 798 797 796 794 792 791 791 791 791 789 788 787 787 786 786 785 784 784 784 784 783 783 783 782 782 782 781 781 781 780 780 779 779 778 778 777 777 776 776 775 775 774 774 774 773 773 772 771 771 771 770 769 769 768
803 803 802 802 802 802 802 802 802 802 802 802 802 802 801 801 801 801 801 801 801 801 801 800 800 799 798 798 798 797 797 797 797 796 796 794 792 791 791 791 791 789 787 786 786 785 784 783 782 782 782 782 782 781 781 781 780 780 780 779 779 779 778 778 777 776 776 775 775 774 774 774 773 773 772 772 771 771 771 770 769 769 768 767 766 766
802 802 802 802 802 802 802 802 802 802 802 802 801 801 801 801 801 801 801 801 801 801 800 800 799 798 798 798 797 797 797 796 796 796 795 794 792 791 791 791 790 788 786 785 784 784 783 781 780 780 780 780 780 780 779 779 779 779 778 778 777 777 776 776 775 775 774 774 773 773 772 772 771 771 771 770 770 769 769 768 767 767 766 766 765 764
802 802 802 802 801 801 801 801 801 801 801 801 801 801 801 800 800 800 800 800 800 800 800 799 799 798 798 797 797 796 796 796 796 795 795 794 792 791 790 790 789 788 786 784 782 782 781 780 779 778 778 778 778 778 778 778 777 777 777 776 776 775 775 774 773 773 772 772 771 771 771 770 770 770 769 768 768 767 767 766 766 765 764 763 762 761
801 801 801 801 801 801 801 801 801 801 801 801 801 801 800 800 800 799 799 799 799 799 799 799 799 798 797 797 796 796 796 795 795 794 794 793 791 790 789 789 788 787 786 783 781 780 780 779 778 777 777 777 777 777 777 776 776 776 775 775 774 774 773 772 772 771 771 771 770 770 769 769 768 768 767 767 766 766 765 764 764 763 762 761 761 760
801 801 801 801 800 800 800 800 800 800 800 800 800 800 799 799 799 799 799 799 799 799 798 798 798 798 797 796 796 795 795 794 794 793 793 792 791 790 789 788 788 787 785 783 780 778 777 777 777 776 776 776 776 776 776 775 775 774 774 773 772 772 771 771 770 770 769 769 768 768 767 767 766 766 765 765 764 764 763 762 762 761 760 759 759 758
801 800 800 800 800 800 799 799 799 799 799 799 799 799 798 798 798 798 798 798 798 798 798 797 797 797 796 796 795 794 793 793 793 792 792 791 790 789 788 788 787 787 786 784 781 778 776 776 776 776 776 775 775 774 774 773 773 772 771 771 771 770 770 769 769 768 768 767 767 766 766 765 765 764 763 763 762 761 761 761 760 759 758 757 757 756
800 800 799 799 799 799 799 798 798 798 798 798 798 797 797 797 797 797 797 797 797 797 797 797 796 796 796 796 795 794 793 792 792 792 791 791 790 789 788 787 787 787 787 786 785 782 777 774 774 775 775 774 774 773 772 772 771 771 770 769 769 768 768 768 767 766 766 766 765 764 764 763 762 762 761 761 760 759 759 758 758 757 756 756 755 754
799 799 799 799 798 798 798 798 797 797 797 797 797 797 797 797 796 796 796 796 796 796 796 796 796 795 795 795 794 793 792 792 791 792 791 791 790 789 788 788 787 786 787 787 787 786 782 776 773 773 773 773 772 771 771 771 770 769 769 768 767 766 766 766 766 765 764 763 763 762 762 761 761 760 759 759 758 757 757 756 756 756 755 754 753 752
798 798 798 798 798 797 797 797 797 796 796 796 796 796 796 796 796 796 796 796 795 795 795 795 795 794 794 794 793 792 791 791 791 791 791 791 790 788 788 787 787 786 786 786 786 786 784 780 776 773 772 771 771 770 770 769 769 768 768 767 766 765 765 764 764 763 762 761 761 760 760 759 758 758 757 756 756 755 755 755 754 754 753 753 752 751
798 797 797 797 797 797 796 796 796 796 796 796 796 796 796 796 795 795 795 795 794 794 794 794 794 793 793 792 792 791 791 791 791 791 791 790 789 788 787 787 787 786 786 785 785 784 783 781 779 776 772 770 769 769 769 768 768 767 767 766 765 764 763 763 762 761 761 760 759 758 757 757 756 756 755 755 754 753 753 752 752 752 752 751 751 749
797 797 797 797 796 796 796 796 796 796 796 796 795 795 795 795 794 794 794 794 793 793 793 793 793 792 792 792 791 790 789 789 790 790 790 789 789 788 787 786 786 786 786 785 784 783 782 780 779 777 774 770 767 766 767 767 766 766 765 765 764 763 762 761 761 760 759 758 757 756 755 755 754 754 753 752 752 751 751 751 751 750 750 750 749 748
796 796 796 796 796 796 796 796 795 795 795 795 795 794 794 794 793 793 793 792 792 792 792 791 791 791 791 791 790 789 788 788 788 789 789 789 788 788 787 786 786 786 785 784 783 782 781 779 778 777 775 772 769 766 765 765 765 765 764 763 762 761 761 760 759 758 757 756 755 754 754 753 752 752 751 751 750 750 750 749 748 748 747 747 746 746
796 796 796 796 796 795 795 795 795 795 794 794 794 793 793 793 792 792 791 791 791 791 791 790 790 790 790 789 789 788 787 787 787 787 787 787 787 787 786 785 785 785 785 784 783 782 781 779 777 776 774 773 770 767 764 763 763 762 762 761 761 760 759 758 758 757 756 755 754 753 752 752 751 750 750 749 749 748 747 747 746 745 745 744 744 744
796 796 796 795 795 795 795 794 794 794 793 793 793 792 792 792 791 791 791 790 790 790 789 789 789 788 788 788 787 787 786 786 786 786 786 786 786 786 785 784 783 783 783 783 782 781 780 779 777 775 773 771 770 768 766 764 762 761 760 759 758 758 757 756 756 756 755 754 753 752 751 750 750 749 748 747 746 746 745 744 743 743 743 742 741 741
795 795 795 795 795 794 794 794 793 793 793 792 792 791 791 791 790 790 790 789 789 789 788 788 787 787 787 786 786 786 785 785 784 784 785 785 785 784 784 783 782 782 782 781 781 780 779 778 776 775 773 770 768 766 765 764 763 761 759 757 756 755 755 755 755 754 753 752 751 750 749 749 748 747 746 745 745 744 743 742 741 741 740 740 739 738
795 795 795 794 794 794 793 793 792 792 792 791 791 791 790 790 789 789 789 789 788 788 787 787 787 786 786 785 785 784 784 784 783 783 783 783 783 783 782 782 781 781 780 780 779 779 778 777 775 774 772 771 768 766 764 763 762 761 759 757 755 753 752 753 753 752 751 751 750 749 747 747 746 745 745 744 743 742 741 740 740 739 739 738 737 736
794 794 794 794 793 793 793 792 792 791 791 790 790 790 789 789 789 788 788 787 787 787 787 786 786 785 784 784 783 783 783 782 782 782 782 781 781 781 781 781 780 779 779 778 777 777 776 775 774 772 771 770 768 765 763 761 761 760 759 757 755 752 751 751 751 750 749 749 748 747 746 745 745 744 743 742 741 740 740 739 738 737 736 736 735 735
794 793 793 793 793 792 792 791 791 791 790 790 789 789 789 788 788 788 787 787 786 786 786 785 785 784 783 782 782 781 781 781 781 781 780 780 780 780 779 779 778 778 777 776 776 775 774 774 772 771 769 768 766 764 761 760 759 759 758 756 754 752 750 748 748 748 748 747 746 745 745 744 743 742 741 740 739 738 737 737 736 735 735 734 733 732
793 793 792 792 792 791 791 791 790 790 789 789 789 788 788 788 787 787 787 786 786 786 785 785 784 783 782 781 780 780 780 780 780 779 779 779 778 778 778 777 777 776 776 775 774 773 772 772 771 769 768 767 766 763 761 758 757 756 756 755 754 752 750 746 745 746 746 745 745 744 743 742 741 740 739 738 737 736 735 734 734 733 732 731 731 730
792 792 792 791 791 791 790 790 790 789 789 788 788 788 787 787 787 787 786 786 785 785 785 784 783 783 781 780 779 779 778 778 778 778 778 777 777 777 776 776 776 775 775 774 773 772 771 770 768 767 766 766 764 762 759 757 756 754 753 753 753 752 750 746 745 745 744 743 742 742 741 740 740 738 737 735 735 734 733 732 731 730 730 729 728 727
791 791 791 791 791 790 790 789 789 788 788 788 787 787 787 786 786 786 786 785 785 784 784 783 783 782 781 780 779 778 777 777 776 776 776 776 776 776 775 774 774 773 773 772 771 771 769 768 766 765 765 764 762 760 758 756 754 753 751 751 751 750 748 746 745 744 743 741 740 740 739 739 738 736 735 733 732 731 730 730 729 727 726 726 725 725
791 791 790 790 790 789 789 788 788 788 787 787 787 786 786 786 786 786 785 785 784 784 783 783 782 781 781 779 778 777 776 776 775 775 775 774 774 774 773 773 772 772 771 770 770 769 768 766 765 764 762 761 760 758 756 755 753 751 750 749 748 747 746 745 744 743 742 740 739 738 737 737 736 735 733 731 730 729 728 727 726 725 725 724 723 722
790 790 790 789 789 789 788 788 787 787 787 786 786 786 786 785 785 785 784 784 784 783 782 782 782 781 780 779 778 777 776 775 774 773 773 772 772 772 771 771 771 770 769 768 767 766 766 765 764 763 761 760 757 755 753 753 752 751 749 747 746 745 744 742 741 741 740 739 738 736 735 735 734 733 731 729 728 726 725 725 724 724 723 722 721 720
790 789 789 789 788 788 788 787 787 786 786 786 785 785 785 785 784 784 783 783 783 783 782 781 781 780 779 778 778 777 776 775 773 772 771 771 771 770 770 769 769 768 767 766 765 764 763 762 761 761 760 759 756 753 751 750 750 749 748 746 745 744 742 740 740 739 739 737 736 735 734 734 732 731 729 727 725 724 723 722 722 721 721 720 719 718
789 789 788 788 788 787 787 787 786 786 785 785 784 784 784 784 784 783 783 782 782 782 781 781 780 779 778 777 776 776 775 774 773 771 771 770 769 769 768 767 767 766 765 764 763 762 761 759 759 758 757 756 755 752 749 748 747 747 746 745 744 742 740 739 737 737 736 735 734 733 732 732 730 729 728 726 724 722 721 720 719 719 718 717 716 715
788 788 788 788 787 787 786 786 786 785 785 784 784 783 783 783 782 782 782 781 781 781 780 780 779 778 777 776 775 775 774 773 771 771 770 769 768 768 767 766 766 765 763 762 761 760 759 757 756 755 755 754 753 751 749 746 745 745 744 743 742 740 739 737 735 735 734 733 732 731 730 730 729 728 726 725 722 720 719 718 717 715 715 714 714 713
788 787 787 787 787 786 786 786 785 785 784 784 783 782 782 781 781 781 781 781 780 780 779 779 778 777 776 775 774 773 773 772 771 770 768 768 767 767 766 765 765 764 762 761 759 758 757 755 753 752 751 751 751 750 748 746 744 743 741 740 740 739 738 736 734 733 732 731 730 730 729 728 727 726 725 724 721 719 717 715 714 713 712 711 711 710
Wind_Speed
11 12 14 16 18 19 19 20 21 21 20 19 17 16 16 14 13 11 9 7 6 5 4 5 6 8 9 11 12 12 12 12 12 12 12 12 12 12 13 13 13 13 14 14 13 13 13 13 13 13 13 13 13 13 13 13 12 12 12 12 12 13 13 13 14 14 14 14 14 15 15 15 15 15 15 15 16 16 16 17 17 17 17 17 17 17
10 11 12 13 15 17 17 18 18 17 16 15 14 13 13 12 11 9 7 5 4 4 5 6 8 9 11 13 14 14 13 12 11 11 12 12 12 13 13 13 14 14 14 14 13 13 13 13 13 13 13 12 12 12 12 12 12 12 12 12 12 13 13 13 14 14 14 14 15 15 15 15 15 15 15 16 16 16 17 17 17 17 17 17 18 18
10 11 11 12 13 15 15 15 14 14 13 12 12 11 10 9 8 7 5 4 4 5 7 8 10 11 13 14 14 13 12 11 11 11 12 12 13 13 13 14 14 14 14 13 13 13 12 12 12 12 12 12 12 12 12 12 12 12 12 12 13 13 13 14 14 14 14 15 15 15 15 15 15 16 16 16 16 17 17 17 17 18 18 18 18 18
11 12 12 12 12 13 13 13 12 11 11 10 9 8 7 7 6 5 4 5 6 8 9 11 12 13 13 13 13 13 12 11 11 11 12 12 13 13 14 14 14 13 13 12 12 12 11 11 11 11 11 11 11 11 11 12 12 12 12 13 13 13 14 14 14 14 15 15 15 15 15 15 16 16 16 16 17 17 17 17 18 18 18 18 18 19
11 12 12 12 12 12 11 10 10 9 9 8 7 6 6 5 5 5 6 7 8 10 10 11 11 12 12 12 12 12 12 11 11 11 12 13 13 13 14 13 13 12 12 11 11 11 10 10 10 10 10 11 11 11 11 12 12 12 13 13 13 14 14 14 14 14 15 15 15 15 15 16 16 16 16 17 17 17 17 18 18 18 18 18 19 19
11 12 12 12 11 10 9 9 8 8 7 6 6 6 6 6 7 8 8 9 10 10 10 10 10 11 11 11 11 11 11 10 11 11 12 13 13 13 13 13 12 12 11 11 11 10 10 10 10 10 10 11 11 11 12 12 12 13 13 13 13 14 14 14 14 14 14 14 15 15 15 16 16 16 16 17 17 17 17 18 18 18 18 18 19 19
11 11 10 10 9 8 7 7 7 6 6 6 6 6 7 8 9 9 10 10 10 9 9 10 10 10 10 10 10 10 10 11 11 12 13 13 13 12 12 12 11 11 11 11 11 11 10 10 10 10 11 11 11 12 12 12 12 13 13 13 13 13 13 13 14 14 14 14 14 15 15 15 16 16 16 16 17 17 17 17 17 18 18 18 19 19
10 10 9 8 7 6 5 5 5 5 5 6 7 8 9 9 9 10 10 9 9 9 9 9 9 9 9 9 9 9 10 11 13 14 14 13 12 11 11 11 11 11 11 11 11 11 10 10 10 10 11 11 11 12 12 12 12 12 12 13 13 13 13 13 13 13 14 14 14 14 15 15 15 15 16 16 16 16 17 17 17 17 18 18 19 19
10 9 8 7 6 5 5 5 5 6 6 7 8 8 9 9 9 9 10 9 9 9 9 8 8 8 7 8 8 9 11 12 13 14 13 12 11 10 10 10 11 11 10 10 10 10 10 10 10 10 11 11 12 12 12 12 13 12 12 12 12 12 13 13 13 13 13 13 14 14 14 14 15 15 15 15 16 16 16 17 17 18 18 19 19 20
9 8 7 6 6 5 5 4 5 6 7 7 8 8 8 8 9 9 9 9 8 7 7 7 7 7 8 8 9 10 11 13 13 13 12 11 10 10 9 10 10 10 10 10 10 10 10 10 10 11 12 12 13 13 13 13 13 13 13 12 12 12 12 12 12 13 13 13 13 13 14 14 14 14 15 15 16 16 17 17 18 18 19 19 20 20
7 7 6 5 5 5 4 4 5 6 7 7 7 8 9 9 9 9 9 9 7 6 5 6 7 7 8 9 10 11 12 14 14 12 10 9 8 8 8 8 8 9 9 10 10 10 11 11 12 13 13 14 14 14 13 13 13 13 13 12 12 12 12 12 12 12 13 13 13 13 14 14 14 15 15 16 17 17 18 18 19 19 19 20 20 21
5 5 5 4 4 4 4 5 5 6 6 6 7 8 9 9 9 9 9 8 7 5 5 6 6 7 8 9 10 12 14 14 14 12 10 8 8 8 8 9 9 10 11 11 12 13 13 14 14 15 15 15 14 14 13 13 13 12 12 12 12 12 12 13 13 13 13 13 14 14 14 15 16 16 17 17 18 18 19 19 19 20 20 20 21 21
4 4 4 4 4 4 4 5 5 6 6 7 8 8 9 8 7 6 6 6 5 4 5 5 6 7 8 9 11 13 14 14 13 11 10 10 10 10 11 11 12 12 13 14 14 15 15 15 15 15 14 14 13 12 12 11 11 11 11 12 12 13 13 13 13 13 14 14 15 15 16 16 17 17 18 18 19 19 20 20 20 20 21 21 21 21
4 4 4 4 4 5 5 6 6 7 7 8 8 8 7 5 4 4 4 4 4 4 5 6 7 8 9 10 11 12 13 12 12 12 12 12 12 12 13 14 15 15 15 15 15 14 14 13 13 12 12 11 11 11 10 10 10 11 12 12 13 13 13 14 14 15 15 16 16 17 17 18 18 18 19 19 19 20 20 21 21 21 21 21 22 22
4 4 5 5 6 6 7 7 7 7 7 6 5 5 4 3 3 3 3 3 4 5 6 7 9 9 9 9 10 11 11 11 12 13 14 15 14 14 15 16 17 17 16 16 15 13 12 12 12 12 11 10 10 10 10 11 11 12 13 13 13 14 14 15 15 16 16 16 17 17 18 18 19 19 19 19 20 20 20 21 21 21 21 22 22 22
5 6 6 7 7 7 6 5 4 4 3 2 2 3 3 2 2 3 3 4 5 6 7 9 10 10 10 10 10 10 11 11 13 14 16 17 17 16 16 17 18 18 17 16 15 14 12 12 12 12 11 11 11 11 11 12 13 13 13 14 14 14 15 15 16 16 16 17 17 18 18 18 19 19 19 20 20 20 21 21 21 21 22 22 22 22
6 7 7 7 6 5 3 2 2 2 2 2 2 2 2 2 2 3 4 4 6 7 7 8 7 7 8 11 11 11 11 12 14 16 17 18 18 18 17 17 17 18 17 16 15 14 14 13 13 12 12 12 12 12 12 13 14 14 14 14 14 15 15 15 16 16 17 17 18 18 18 19 19 19 19 19 20 20 20 21 21 21 22 22 22 22
5 4 4 3 3 2 2 2 3 3 3 3 3 3 3 3 3 3 4 5 6 7 7 8 8 7 8 9 11 11 12 13 15 17 18 18 19 19 18 17 17 17 18 17 16 15 15 14 14 13 13 14 13 13 13 14 14 14 14 15 15 15 16 16 16 17 17 17 18 18 18 18 19 19 19 19 19 20 20 20 21 21 21 22 22 22
2 1 1 1 1 2 2 3 3 3 3 3 3 3 2 3 3 4 5 6 7 7 8 8 9 9 9 10 12 13 13 14 16 18 18 19 19 19 18 17 17 17 18 17 17 16 16 15 15 15 15 15 15 14 14 14 14 15 15 15 15 16 16 16 17 17 17 17 17 18 18 18 18 18 19 19 19 20 20 20 21 21 22 22 22 22
1 1 2 2 3 3 2 2 2 2 2 3 3 3 3 4 5 5 6 7 8 9 9 9 9 10 10 11 12 13 13 15 17 18 18 19 19 19 17 16 16 17 18 18 18 17 16 16 16 16 16 16 16 15 14 14 15 15 15 16 16 16 16 17 17 17 17 17 17 17 17 17 18 18 18 19 19 20 20 20 21 21 22 22 23 23
2 2 2 2 3 3 3 2 3 3 3 4 4 4 5 5 6 7 8 9 9 10 10 9 10 11 11 12 14 15 16 17 17 17 17 17 17 17 16 15 16 17 18 18 18 18 17 18 18 18 18 17 16 15 15 15 15 15 16 16 16 16 16 16 16 16 16 16 16 17 17 17 18 18 19 19 19 20 20 20 20 21 21 22 22 23
1 2 2 3 3 3 4 4 4 5 5 6 6 6 6 7 7 8 9 9 9 10 10 10 11 12 13 14 16 17 18 17 17 16 15 15 16 17 16 15 15 16 18 18 19 19 19 19 19 19 18 18 16 15 15 15 15 15 15 15 15 15 15 15 15 15 16 16 16 17 17 18 18 19 19 19 19 20 20 20 20 20 21 21 21 22
3 3 4 4 4 5 5 6 6 7 8 8 8 8 8 8 8 8 9 9 9 9 10 11 12 14 15 17 18 18 17 15 14 14 12 11 13 15 15 15 15 17 18 19 20 20 20 21 20 20 19 18 17 16 15 15 15 15 14 14 14 14 14 15 15 16 16 17 17 18 18 19 19 19 19 19 19 19 19 20 20 20 21 21 21 22
5 5 6 6 6 6 7 8 8 9 10 10 10 10 10 9 9 9 10 10 10 10 11 13 14 16 16 17 17 16 15 12 11 11 11 10 12 15 15 15 16 18 19 20 20 20 21 21 21 20 19 18 17 16 15 14 14 14 13 13 14 14 15 15 16 17 17 18 18 18 19 19 19 19 19 19 19 19 19 19 20 20 21 21 21 22
6 6 7 7 7 8 8 8 9 9 10 10 10 10 10 10 10 10 10 10 10 11 12 13 14 15 15 14 13 13 12 10 9 9 11 11 13 15 15 15 16 17 19 20 20 20 21 22 22 21 20 19 17 16 14 14 13 13 13 14 14 15 16 17 17 18 18 18 18 18 18 18 18 18 18 18 19 19 19 19 20 20 20 21 21 22
5 6 6 7 7 7 7 7 7 8 8 9 9 10 10 10 10 10 10 10 10 10 11 12 12 13 13 13 12 12 11 9 9 9 11 11 13 14 15 15 15 16 18 20 20 20 21 21 22 21 20 18 16 14 13 13 13 13 14 16 17 18 18 18 18 18 17 17 17 17 17 18 18 18 18 18 19 19 19 19 20 20 20 20 21 21
5 6 6 6 6 6 6 7 7 7 7 7 7 8 8 9 9 9 9 10 10 10 10 10 10 11 12 11 11 11 11 11 10 11 11 12 13 13 14 14 15 16 18 20 21 21 20 21 21 20 18 16 14 13 13 13 14 16 18 19 20 20 19 18 17 17 17 17 17 17 17 18 18 18 18 18 19 19 19 19 19 20 20 20 20 20
6 6 6 7 7 7 7 7 7 6 7 7 7 7 7 8 9 9 10 10 10 9 9 9 9 9 9 10 11 12 12 12 11 11 11 11 11 11 13 14 15 17 19 20 22 22 20 19 18 17 16 14 12 12 13 15 17 19 21 22 21 20 19 18 17 17 17 17 17 17 17 18 18 18 18 18 19 19 19 19 19 20 20 20 19 19
8 8 7 7 6 6 6 6 6 7 7 7 7 6 7 7 8 9 10 10 10 9 9 9 9 9 9 11 12 12 12 10 8 8 9 10 11 12 14 15 16 17 19 20 21 20 18 16 14 13 13 12 13 14 16 19 21 23 23 22 21 19 18 18 18 17 17 17 17 17 17 18 18 18 18 18 19 19 19 19 19 19 19 19 19 19
9 8 7 6 5 5 6 6 7 7 7 7 7 6 6 7 8 9 9 9 9 9 9 9 10 10 10 11 10 9 7 5 5 6 10 12 12 13 15 16 16 17 17 17 15 14 15 15 13 11 11 13 15 18 20 22 23 23 23 22 21 20 19 19 18 18 18 18 18 18 18 18 18 18 19 19 19 19 19 19 19 19 19 19 19 19
9 8 7 6 6 6 6 6 7 7 7 7 6 6 7 7 8 8 8 8 8 8 9 9 9 10 9 8 6 4 4 5 6 8 12 13 13 14 15 15 15 15 14 13 9 7 9 12 13 12 13 16 19 21 22 22 22 22 22 21 21 21 20 20 19 19 19 19 19 18 18 18 19 19 19 19 19 19 19 19 19 19 19 19 19 20
9 9 8 8 7 7 7 7 7 6 6 6 6 6 6 7 7 7 7 6 6 7 8 9 9 10 9 9 7 6 7 9 10 11 12 13 13 14 14 13 14 14 13 11 9 7 5 9 14 18 19 19 20 21 22 21 21 20 20 21 21 22 21 21 20 20 21 20 20 20 20 20 20 20 19 19 19 19 19 19 18 18 18 18 19 20
10 9 8 8 7 7 7 6 6 6 5 5 5 5 5 5 6 6 6 6 6 6 7 8 9 10 10 11 11 12 12 13 12 11 11 11 12 12 13 13 13 14 13 12 11 11 10 13 17 21 22 22 21 20 20 20 20 19 19 20 21 22 23 22 22 22 22 22 22 22 22 21 21 20 20 20 20 19 19 18 18 17 17 18 19 20
10 8 7 7 7 6 6 6 5 5 4 4 4 4 4 4 5 5 5 5 6 6 7 8 9 10 10 11 12 13 14 13 11 10 10 11 11 12 13 13 13 13 13 13 12 13 14 16 18 19 21 22 22 20 19 19 19 18 18 19 21 23 24 24 24 24 24 24 24 24 23 23 22 22 22 21 20 20 19 18 18 18 18 19 20 20
8 7 7 6 6 6 6 5 4 4 4 3 3 4 4 5 6 6 6 6 7 7 8 8 9 10 11 11 12 13 13 13 11 10 10 11 12 13 14 13 13 13 13 13 13 12 13 15 17 18 19 21 22 21 19 18 18 18 19 20 21 22 24 24 24 24 25 24 24 24 24 24 24 24 23 23 22 20 20 19 19 19 19 19 20 20
7 7 6 6 6 6 5 5 4 4 4 4 4 5 6 7 7 8 8 9 9 9 9 10 10 11 12 13 14 15 16 15 15 13 13 13 14 14 14 14 13 13 13 13 13 13 13 15 17 18 18 19 20 21 21 20 19 20 20 21 21 22 23 23 24 24 24 24 24 24 24 25 24 24 24 23 22 21 21 21 21 21 20 20 19 20
7 7 6 6 6 5 5 5 5 5 5 5 6 6 7 8 9 9 10 10 10 10 10 10 11 11 12 13 15 16 17 18 17 16 15 15 15 16 15 15 15 14 14 14 14 15 15 15 17 17 17 17 17 19 21 22 22 22 22 22 22 22 23 23 23 22 22 23 24 24 24 24 24 24 24 24 23 23 23 23 22 22 21 21 20 20
7 6 5 5 5 6 6 5 5 6 6 6 7 7 8 9 9 10 10 10 10 10 11 11 12 12 13 13 15 16 17 18 18 17 17 16 17 17 18 17 17 16 16 15 16 16 16 15 15 14 15 17 18 20 21 23 23 23 24 24 24 23 23 22 21 21 21 22 23 24 24 24 24 24 25 25 25 25 25 24 24 23 22 22 22 21
5 5 5 5 5 6 6 6 7 7 7 7 8 9 9 10 10 10 10 11 11 11 11 12 13 14 14 15 15 16 16 17 17 17 17 16 17 17 19 19 19 18 18 18 18 17 17 16 15 15 15 17 20 21 22 22 22 23 24 25 25 24 22 21 20 21 22 23 24 24 25 25 25 25 25 25 25 25 25 25 24 24 23 23 24 24
5 5 5 5 6 6 6 7 8 8 9 9 9 10 10 10 10 11 11 11 11 11 11 12 13 14 14 15 15 15 16 16 16 16 16 16 17 17 18 19 19 19 19 19 18 18 18 17 18 18 19 18 20 21 22 23 23 23 23 23 23 23 23 22 23 23 23 24 24 24 24 24 24 24 25 25 24 24 24 24 24 24 24 24 24 24
5 5 6 6 6 7 7 8 8 9 10 11 11 11 10 10 11 11 12 12 12 12 12 12 13 14 15 16 16 16 16 16 16 16 16 15 15 15 16 18 19 19 19 19 18 18 18 18 19 20 20 20 21 22 23 24 23 23 22 22 23 25 26 26 25 24 23 23 23 23 23 24 24 24 25 25 25 25 25 25 25 25 25 24 24 24
6 6 7 7 7 8 8 8 9 10 11 11 11 10 10 10 11 11 12 13 13 13 12 13 14 15 16 17 17 17 16 16 15 15 14 14 14 14 15 16 18 19 19 19 19 19 19 19 19 20 20 21 21 21 22 24 24 23 22 22 23 25 26 25 23 22 21 22 23 23 23 24 25 25 26 26 26 26 26 26 26 25 25 24 24 24
7 8 8 8 8 8 9 9 10 11 11 11 10 10 10 10 10 11 12 13 13 13 13 13 14 15 16 17 18 17 17 16 15 14 14 13 13 13 14 15 16 17 18 19 19 19 19 19 20 20 21 21 21 22 23 24 24 24 23 22 23 22 21 23 23 22 22 23 24 24 24 25 25 26 26 26 27 27 26 26 26 25 25 24 24 25
8 8 8 8 8 9 10 10 11 11 11 11 11 10 10 10 10 10 12 13 13 13 14 14 15 15 16 17 17 18 17 16 14 13 13 13 13 13 14 15 15 16 17 19 20 19 19 20 20 20 20 20 21 22 23 24 24 24 24 23 22 21 21 23 24 25 24 24 24 24 25 25 26 27 27 27 27 27 26 26 26 26 25 25 25 25
8 8 8 9 9 10 11 11 11 11 10 10 11 11 10 10 10 10 11 13 13 14 14 14 14 14 14 15 16 16 16 16 15 14 14 13 13 13 13 14 15 15 17 19 20 20 20 20 20 21 21 20 21 21 22 24 24 25 25 23 22 22 24 25 24 24 24 25 25 25 25 26 26 26 26 26 26 26 26 25 25 25 25 25 25 25
8 8 9 9 10 11 11 11 11 11 10 10 11 11 11 10 10 10 11 12 13 14 14 14 13 13 13 14 15 16 16 16 16 16 15 15 14 14 14 14 15 16 17 19 20 21 22 22 22 22 22 21 22 22 23 23 23 23 24 24 23 23 23 24 23 23 23 24 25 25 26 26 26 25 24 25 25 25 25 24 23 23 24 24 24 24
8 9 9 10 11 12 12 11 11 11 11 11 11 11 11 11 11 11 12 12 13 13 13 13 13 13 13 14 15 15 16 17 17 17 17 16 16 16 15 16 16 17 18 19 21 22 23 24 25 24 23 22 22 23 24 23 23 22 23 23 23 22 23 23 23 23 23 23 24 26 27 26 25 25 24 24 24 24 24 23 22 22 23 23 23 24
8 9 10 11 11 12 12 11 11 11 12 12 12 11 11 11 11 11 12 12 12 12 12 13 13 13 14 15 15 15 16 16 17 18 18 18 18 18 17 17 18 18 19 20 21 22 24 25 25 26 25 24 23 23 24 24 23 23 23 23 22 22 23 24 24 24 23 24 25 26 26 25 24 24 24 24 24 23 23 23 23 23 24 24 24 25
9 9 10 11 11 11 12 11 11 12 12 13 13 13 12 12 11 11 12 12 12 13 13 13 14 14 15 15 15 15 16 16 17 18 18 18 18 18 18 18 18 18 19 19 20 21 22 23 23 24 24 24 24 24 25 24 24 23 23 22 22 22 23 24 25 24 24 24 25 26 26 25 24 23 23 22 22 23 23 24 25 25 25 25 25 25
9 10 10 11 11 12 12 12 12 12 12 13 13 13 14 13 13 13 13 13 13 13 13 13 14 14 15 15 16 16 16 16 17 18 18 18 18 18 18 18 18 18 18 18 18 18 18 18 19 19 19 21 22 24 25 25 25 24 23 22 22 22 23 24 24 25 24 24 24 24 24 23 22 22 21 20 21 23 25 26 26 26 26 26 25 26
10 10 11 11 11 12 12 12 12 13 13 13 13 14 14 14 13 13 13 13 13 13 13 14 14 15 15 16 16 16 16 16 17 17 18 18 18 17 17 17 17 17 17 16 16 16 15 14 15 16 17 17 17 19 21 23 23 23 23 23 22 22 22 23 24 24 23 23 22 22 22 21 21 20 20 20 22 23 24 25 26 26 26 25 25 25
Wind_Direction
188 192 200 207 208 207 211 218 221 222 224 225 224 223 223 224 225 225 224 226 232 245 265 281 290 291 288 284 281 281 285 289 292 295 296 297 296 296 294 292 291 290 289 289 289 289 290 290 290 290 289 289 289 289 289 289 288 288 288 287 287 286 285 285 285 284 284 284 284 284 282 281 282 283 283 284 283 281 282 284 285 284 283 282 281 280
185 191 197 206 208 208 209 217 220 220 221 220 219 218 218 218 220 221 223 231 245 267 280 282 280 278 276 276 278 282 287 292 295 297 297 297 297 296 295 294 292 292 291 291 291 291 291 291 291 291 290 290 290 290 290 290 289 289 288 288 287 286 285 285 284 284 284 283 283 283 283 283 283 284 284 283 283 283 283 283 282 282 281 280 279 278
176 184 193 201 206 207 208 213 216 217 218 218 217 216 216 217 219 222 227 238 253 262 264 264 265 267 271 275 280 285 290 294 296 297 297 297 297 297 296 295 295 294 294 294 294 293 293 293 292 292 292 292 292 291 291 290 290 289 289 288 287 286 285 285 284 284 283 283 282 282 282 282 282 282 282 282 282 282 281 281 281 281 281 280 279 278
171 176 187 194 201 206 209 210 210 211 213 215 215 214 216 220 227 233 239 246 248 250 253 258 263 269 274 279 283 288 292 295 296 297 297 297 297 298 298 297 297 297 297 297 297 296 295 295 295 294 294 294 294 293 293 292 291 290 289 288 287 286 285 284 283 282 282 281 281 281 281 281 281 280 280 280 280 280 280 280 280 281 281 280 280 280
173 178 184 189 195 202 207 208 208 207 208 209 210 214 222 232 242 247 247 247 248 251 257 263 269 274 278 282 287 290 294 295 295 295 296 297 298 299 299 300 299 299 299 299 299 298 298 298 298 297 297 297 296 296 295 294 293 291 290 288 286 284 283 282 281 280 280 279 279 279 279 279 279 279 278 279 279 279 280 280 280 280 281 280 280 280
177 182 185 188 193 198 199 200 201 201 202 204 210 219 231 240 246 247 248 250 254 259 266 271 275 278 281 285 289 292 294 294 294 294 295 297 298 300 301 302 301 301 301 300 300 300 300 300 299 299 299 299 299 298 297 296 295 294 292 290 288 286 284 282 281 281 280 279 279 279 278 278 278 278 278 278 278 278 279 279 279 279 280 280 280 280
179 184 185 187 189 189 189 190 190 191 196 205 216 226 233 239 243 246 250 255 260 266 271 274 276 279 282 286 289 292 293 294 295 297 299 301 302 303 303 303 303 303 302 301 301 300 300 300 301 301 301 302 302 302 301 300 299 298 296 294 292 290 288 286 284 282 281 280 279 279 278 278 278 278 278 278 278 278 279 279 279 279 280 280 280 280
175 180 182 183 181 178 180 184 188 193 202 213 222 227 232 236 241 246 252 258 264 268 272 274 276 278 281 285 288 291 294 297 299 303 306 308 310 310 310 308 307 305 303 303 302 301 301 301 302 303 304 305 305 305 304 303 302 300 298 296 294 291 289 287 285 283 281 280 280 279 278 278 278 278 278 278 278 278 279 279 279 280 280 280 280 281
170 175 179 178 176 177 183 192 199 207 214 221 225 227 230 235 241 248 254 259 265 269 271 274 276 279 282 285 289 293 297 300 305 309 311 312 313 314 314 312 309 307 306 306 305 304 303 303 304 305 306 307 308 307 305 304 302 301 298 296 294 292 291 288 286 284 283 282 281 280 280 280 280 279 279 279 279 279 280 280 280 280 281 281 281 281
168 171 174 175 177 181 187 196 204 211 218 225 230 235 238 242 247 254 259 264 266 268 269 272 277 281 285 289 293 297 301 305 308 311 312 312 312 312 312 311 309 309 309 310 308 307 306 306 307 307 308 309 308 307 305 304 302 301 299 298 297 295 294 291 289 287 285 284 283 282 282 282 281 281 281 281 281 281 281 281 281 281 281 281 281 281
168 171 172 174 180 189 198 204 209 214 222 230 237 244 249 253 257 260 263 267 269 268 265 269 277 284 292 298 301 303 307 309 311 312 312 313 314 314 312 309 308 307 306 304 303 302 302 303 305 307 307 307 306 305 304 302 301 300 300 299 298 297 295 293 291 289 287 286 285 284 284 284 283 283 282 282 282 282 281 281 281 281 281 281 281 281
176 179 181 182 188 199 211 217 221 225 231 238 244 250 255 258 260 263 265 267 269 269 269 274 281 289 297 304 307 309 311 313 314 315 316 317 317 315 311 306 303 299 296 293 292 292 293 296 299 302 304 303 303 303 303 301 300 300 300 300 298 297 295 294 292 290 288 287 286 286 285 285 284 283 283 282 282 281 281 281 281 280 280 280 280 280
193 195 199 200 205 213 221 225 229 233 239 244 249 253 258 259 256 255 259 263 267 272 278 284 290 296 300 305 310 313 315 316 316 316 316 316 314 312 308 304 301 298 295 294 292 292 294 297 300 302 305 307 307 307 306 305 305 304 303 302 300 298 296 294 292 290 289 288 287 286 285 285 284 284 283 282 281 281 281 280 280 280 279 280 280 279
208 211 217 221 223 224 229 233 237 243 248 253 256 258 258 252 243 242 250 257 269 278 286 292 300 305 308 311 314 316 318 318 317 315 313 311 309 307 306 305 304 303 303 303 302 303 305 308 311 313 316 316 316 315 314 313 311 309 305 303 300 297 295 294 292 290 289 288 287 286 286 285 285 284 283 283 282 281 281 281 280 280 279 279 279 279
223 224 224 223 225 228 232 238 247 253 257 256 252 245 239 231 231 242 254 268 282 292 297 302 308 312 313 315 318 320 321 318 317 315 314 310 307 307 309 309 309 310 311 312 313 317 321 323 325 326 327 325 323 321 320 317 312 307 303 301 299 297 295 294 293 291 290 289 288 288 287 286 286 285 285 284 283 283 282 282 281 281 280 280 280 280
237 231 222 219 220 225 231 240 251 261 263 247 232 226 224 228 247 270 286 298 303 307 314 319 321 320 315 315 318 321 322 320 318 317 315 312 310 310 313 313 314 314 316 318 321 325 331 332 331 331 330 328 326 324 320 313 307 303 301 299 298 297 296 295 294 293 292 291 290 290 289 288 288 287 287 286 285 285 284 283 283 282 281 281 280 280
244 234 223 217 215 219 230 251 284 303 298 274 254 249 256 269 288 296 303 309 316 320 322 324 324 320 314 314 315 319 323 322 320 317 315 311 310 312 315 315 314 314 317 320 323 327 331 332 332 331 329 327 325 320 313 306 302 301 300 299 299 299 298 297 296 295 294 293 292 292 291 290 290 289 289 288 287 286 285 284 284 283 282 282 281 281
240 225 213 206 208 226 262 291 299 300 296 286 275 273 275 283 291 301 308 314 324 329 327 322 316 311 309 310 312 317 323 322 320 317 314 310 309 311 315 315 313 313 316 318 322 327 329 329 329 327 326 324 319 312 306 303 301 300 301 300 300 300 299 298 297 296 295 294 293 293 292 291 291 290 289 289 288 287 286 285 284 284 283 282 282 281
196 157 88 28 337 309 297 295 295 295 294 288 282 280 283 287 293 302 310 316 323 326 323 317 310 305 303 302 307 313 319 318 317 316 313 308 307 309 313 314 313 313 314 316 320 324 325 325 324 323 322 319 315 310 306 304 302 301 301 301 301 300 300 299 298 297 296 295 294 294 293 292 292 291 290 290 289 288 287 286 285 284 284 283 282 281
103 70 34 15 357 342 325 313 306 302 300 292 289 289 294 298 302 307 313 316 317 318 314 310 305 302 302 303 306 309 311 312 314 314 310 305 304 306 311 313 312 311 311 313 317 320 321 320 320 319 318 317 315 312 308 304 302 301 301 301 301 301 300 300 299 298 297 296 296 296 295 295 294 293 293 292 292 291 290 288 287 286 285 284 283 282
63 45 19 357 351 353 352 337 320 307 302 298 300 303 303 304 307 310 311 314 315 314 311 307 302 301 302 303 303 303 304 308 311 311 306 302 300 303 308 312 312 311 309 311 314 317 317 316 316 316 316 316 315 312 307 304 302 301 301 302 302 302 302 302 301 301 300 300 299 298 298 298 297 296 296 295 294 293 292 291 290 289 288 286 285 284
359 359 339 327 328 334 332 322 314 308 305 307 310 311 309 309 310 311 311 312 312 310 306 301 299 299 299 298 298 298 299 303 306 305 301 298 297 300 308 313 313 310 308 309 311 314 314 314 314 315 316 316 314 311 307 304 303 303 303 304 304 305 305 305 305 305 304 303 302 300 300 299 298 297 296 295 294 294 293 292 290 290 289 287 286 285
305 305 305 305 306 305 307 309 309 308 308 309 309 308 307 308 308 307 307 308 307 304 300 297 297 296 295 295 296 298 300 304 305 303 296 291 292 299 308 312 311 308 305 306 308 311 312 312 313 315 316 317 316 313 310 307 306 306 307 308 309 309 309 309 308 307 305 303 302 300 299 299 298 297 296 295 294 294 293 292 291 290 289 288 287 286
299 296 296 296 296 297 300 305 308 309 310 310 309 308 308 307 306 305 304 303 301 299 299 299 299 299 300 300 302 305 308 313 311 303 294 287 290 297 305 308 309 306 304 305 308 311 312 312 313 315 317 319 318 315 313 311 310 310 311 312 312 312 311 310 308 306 305 302 301 300 299 299 298 297 296 296 295 294 294 293 292 291 290 289 287 286
310 306 303 300 299 300 302 304 306 306 306 306 306 305 304 303 301 299 297 295 294 295 297 299 300 301 303 306 308 309 311 315 310 300 295 291 292 296 300 305 307 306 304 307 310 313 313 312 313 315 318 320 320 319 317 316 315 314 314 314 313 312 310 309 307 306 305 303 302 302 301 300 300 299 297 297 296 295 294 294 293 293 292 290 288 286
332 324 320 314 311 308 304 299 297 295 295 296 298 299 298 297 296 293 291 290 291 294 297 298 297 297 301 303 304 305 307 309 304 298 295 293 294 296 299 304 308 308 307 309 312 314 314 312 313 315 318 322 324 324 321 318 316 314 313 313 313 312 311 311 310 309 308 306 305 304 303 302 301 300 298 297 297 296 295 295 295 295 294 293 292 290
342 337 333 327 323 319 312 305 298 294 290 290 292 295 296 295 294 291 288 289 292 294 295 293 294 296 299 299 299 301 304 304 301 298 296 294 293 295 301 309 315 316 315 314 314 314 313 311 312 315 320 324 326 323 317 314 312 312 312 313 313 314 315 315 315 314 311 309 307 306 305 303 302 301 299 298 298 297 297 297 297 297 296 297 296 294
318 319 320 321 322 320 317 312 306 299 295 293 293 292 292 291 290 290 288 290 291 292 289 286 288 292 295 295 297 299 301 301 301 302 303 302 299 298 306 317 322 323 323 319 316 314 313 311 313 317 321 323 321 315 309 307 308 310 312 314 316 317 318 318 317 315 312 310 307 306 305 303 302 301 300 300 299 299 298 298 298 298 298 297 296 294
298 300 302 305 308 309 306 303 301 300 301 300 298 296 291 286 284 284 285 287 288 288 285 282 283 286 290 294 298 300 300 299 305 314 316 320 316 312 316 322 325 327 329 325 321 317 315 313 314 317 318 316 310 306 304 306 308 312 315 317 319 319 319 318 317 315 312 309 307 306 305 304 303 302 301 301 300 300 299 299 299 299 299 297 295 293
300 302 302 302 302 302 301 299 299 301 303 302 300 295 289 283 279 278 279 281 282 281 281 280 281 284 290 297 301 302 299 303 320 330 328 329 324 320 321 323 325 329 333 331 327 320 315 313 313 313 312 308 305 304 305 308 312 315 318 320 320 319 319 318 317 315 312 309 308 307 305 305 304 303 303 302 302 301 301 301 300 300 299 297 295 293
315 321 323 323 320 317 314 311 308 306 304 303 299 295 289 285 282 279 278 277 276 275 275 277 279 282 287 294 299 299 290 298 314 325 328 326 321 317 319 321 323 326 332 333 329 319 314 312 311 309 308 307 306 307 308 311 314 316 318 318 318 318 318 317 316 314 312 311 309 308 307 306 305 305 305 305 304 303 302 302 302 301 299 297 295 293
316 319 321 322 322 321 319 316 315 313 310 306 301 297 294 293 291 288 284 279 275 273 274 276 278 280 281 282 279 277 281 289 301 315 322 321 315 312 315 317 318 319 322 322 315 305 303 306 306 307 308 308 308 308 310 312 313 315 316 316 316 316 316 316 314 313 312 311 310 309 309 309 308 308 309 308 308 306 304 303 302 301 299 297 294 292
308 309 312 314 316 316 316 315 314 312 310 307 302 298 295 294 293 291 287 283 280 278 278 279 281 283 283 282 279 278 280 285 294 305 314 315 312 310 310 312 312 312 313 311 304 294 288 292 299 304 307 307 307 307 309 310 311 312 313 313 313 313 313 313 313 312 311 311 311 311 311 311 311 312 312 311 310 308 306 304 302 300 297 295 293 292
304 306 310 313 313 312 310 310 310 310 307 304 301 297 293 290 287 285 282 280 279 280 281 282 284 286 287 286 283 281 281 284 291 301 308 309 308 306 306 306 307 308 309 307 303 297 290 290 295 301 305 306 306 305 306 307 309 310 311 310 309 309 310 311 311 311 310 310 310 311 312 313 313 314 313 312 311 310 308 305 302 299 296 294 293 292
304 307 312 314 312 308 306 306 310 311 309 304 300 296 293 290 288 284 282 279 278 277 277 279 280 282 284 285 285 284 284 285 290 296 301 302 302 301 301 300 300 302 303 302 301 299 296 294 295 299 302 305 305 305 305 306 308 309 308 307 306 306 307 309 310 310 310 310 310 310 311 312 313 313 313 312 311 309 307 304 302 299 296 294 292 291
303 308 312 313 311 308 307 309 312 314 313 308 301 297 296 294 292 290 287 285 283 281 278 278 278 278 277 278 279 281 282 285 289 292 294 293 294 294 294 292 293 295 296 295 295 295 295 295 296 297 299 300 303 304 306 307 309 308 307 306 305 305 306 307 307 308 309 309 308 308 309 310 310 310 310 310 309 307 304 303 302 301 299 297 293 290
301 306 310 312 313 314 316 317 319 319 318 314 309 304 302 300 298 297 295 294 292 292 290 289 286 282 279 276 276 278 280 284 287 289 288 287 287 286 285 285 287 287 287 287 289 291 292 294 295 297 296 295 296 301 305 308 309 308 306 306 305 305 304 305 306 306 306 306 305 306 306 307 306 306 306 306 306 305 304 304 304 304 303 300 296 292
302 306 310 313 318 321 322 321 320 320 319 317 314 311 309 306 305 304 304 304 303 302 300 298 295 291 288 284 281 281 282 284 286 287 287 287 286 283 280 280 281 282 280 280 281 284 286 289 292 294 294 293 293 295 299 304 306 306 306 306 305 304 303 304 305 305 304 303 302 302 303 303 303 303 303 304 304 304 304 304 305 304 303 301 298 294
305 308 308 312 317 319 318 316 316 315 314 312 310 309 307 306 306 308 309 309 307 305 303 300 298 296 293 290 288 286 286 287 288 289 290 291 289 285 280 278 278 280 279 278 277 277 277 279 282 286 290 293 294 295 297 299 300 302 304 306 305 303 302 303 303 302 301 300 299 299 300 301 302 302 302 303 302 302 301 301 301 301 300 298 297 295
300 301 303 308 312 313 313 310 309 308 306 304 301 300 300 302 305 307 308 307 306 304 303 301 299 296 294 293 291 290 290 291 292 293 293 292 290 287 282 278 277 278 279 278 275 273 271 272 275 279 282 286 290 293 295 295 296 298 301 303 302 301 302 302 302 300 299 298 298 298 299 300 301 301 300 300 299 298 297 297 297 297 296 295 293 292
294 295 298 303 307 306 303 302 302 302 301 299 299 300 303 306 308 309 308 307 307 306 305 305 303 301 299 297 295 295 295 295 296 296 295 294 292 290 286 281 279 279 278 277 275 273 271 271 273 277 279 281 284 287 289 290 292 294 295 295 294 296 298 299 299 299 298 298 298 298 298 299 299 298 298 298 297 296 295 294 294 294 294 292 289 287
290 291 295 300 302 301 301 302 303 304 305 306 309 310 312 311 310 309 309 309 309 310 310 310 309 305 302 301 300 300 300 301 301 301 299 297 295 292 289 285 283 281 279 277 275 273 272 272 273 274 276 279 282 284 286 287 289 290 289 289 291 295 297 297 297 297 298 298 297 297 297 297 296 296 296 296 295 295 294 293 292 291 290 288 286 283
288 292 299 302 302 302 305 308 310 312 313 314 313 311 309 308 307 308 308 308 307 308 309 309 307 304 300 298 299 301 303 304 303 302 300 298 296 293 290 288 286 284 281 277 274 274 274 274 272 272 274 276 278 280 283 286 288 288 287 287 290 292 294 295 296 297 297 296 296 295 295 295 295 295 295 294 293 293 292 291 291 290 287 285 283 281
297 303 305 304 302 302 304 306 308 311 312 310 308 306 305 305 307 308 307 305 305 305 305 306 304 300 296 296 298 301 304 305 304 301 299 298 296 294 291 289 287 286 283 278 274 274 277 277 275 274 275 275 276 277 280 283 285 286 286 286 286 284 284 288 292 295 295 294 294 293 294 294 294 294 294 293 292 292 291 290 290 289 287 285 283 281
304 303 300 298 299 301 303 305 307 308 308 306 305 304 304 307 310 309 305 303 304 304 303 304 301 297 294 295 298 302 304 305 303 301 300 300 298 297 294 291 288 286 283 279 276 273 273 275 277 279 279 277 275 275 276 279 282 284 285 285 284 282 281 283 287 289 291 292 292 292 293 294 294 294 292 291 291 290 289 288 288 287 287 287 285 283
296 296 296 297 300 303 304 305 306 306 305 303 303 304 306 309 311 309 305 303 302 302 303 302 298 293 292 295 299 302 304 304 304 304 303 303 302 300 297 294 290 287 284 281 278 275 272 272 274 278 280 280 277 275 274 276 278 281 283 285 285 284 284 285 285 286 287 289 290 291 293 294 293 291 288 288 288 289 289 287 286 286 286 287 286 284
292 294 296 299 302 303 303 304 304 303 301 300 301 304 307 310 310 307 304 302 301 301 302 301 298 293 292 294 296 298 299 301 302 303 304 304 304 303 300 298 295 292 288 285 281 278 274 273 273 274 276 277 278 278 277 277 277 278 281 283 285 285 285 285 285 286 286 286 287 289 291 291 291 289 287 287 288 289 288 288 287 286 287 287 286 284
294 295 297 299 302 303 303 303 302 300 298 297 299 302 306 308 306 302 299 299 299 300 300 300 297 294 291 290 290 291 293 295 297 300 301 302 303 303 302 300 298 295 292 288 284 281 278 276 274 272 270 270 272 275 277 278 277 277 279 281 283 283 283 284 285 286 286 285 285 286 287 286 285 284 285 286 286 287 288 288 288 288 288 287 286 284
292 295 298 300 301 300 299 300 299 297 295 295 296 298 302 304 301 298 295 296 297 297 297 296 294 292 290 289 289 289 290 291 293 295 297 299 301 302 302 301 300 298 295 291 288 285 282 280 276 272 269 265 265 269 273 276 277 277 277 278 279 280 281 283 285 287 287 286 286 286 285 283 281 280 281 283 284 286 289 290 290 289 288 286 284 283
293 295 297 298 297 296 296 296 295 294 292 293 294 295 297 299 300 299 298 297 297 296 294 292 291 290 289 289 289 289 289 289 290 291 293 296 299 301 300 301 301 300 298 296 294 292 290 288 286 281 274 267 264 264 268 272 276 278 277 277 277 279 280 282 284 286 287 287 287 287 287 285 283 283 283 284 286 288 290 291 290 289 287 286 284 283
292 293 294 294 293 293 293 293 292 291 291 292 293 294 295 296 297 298 298 297 296 294 293 291 289 287 286 287 288 287 287 288 288 289 291 294 297 299 298 299 300 300 300 300 300 299 299 297 295 293 289 279 270 266 266 270 275 279 281 281 281 281 282 283 285 287 288 289 289 289 289 289 288 287 287 287 288 289 289 289 288 288 287 287 285 284